Uitslag Mr. T. Sprint Triathlon top 3

# Naam Totaal
1 Vanparrys Jano 00:59:36 87.03
2 Vekemans Mika 00:59:56 85.55
3 De Wachter Jonas 01:00:50 84.78
4 Dieussaert Dennis 01:00:56 84.70
5 Van Vooren Brecht 01:01:13 84.45
6 Couvreur Kenny 01:01:17 84.40
7 Dijkshoorn Wouter 01:01:18 84.38
8 Van Damme Dennis 01:01:34 84.16
9 Brinkman Gert 01:01:54 83.87
10 Decoene Bert 01:03:24 82.60
11 Verelst Tom 01:03:30 82.51
12 Driessen Elias 01:03:35 82.44
13 Steenbakker Chris 01:04:07 81.99
14 Lievens Filip 01:04:32 81.63
15 Luyckx Pieter 01:04:46 81.43
16 Harinck David 01:05:01 81.22
17 Gosseries Maxim 01:05:34 80.75
18 Demares Ben 01:05:50 80.52
19 Thys Thomas 01:05:57 80.43
20 Bruyneel Stijn 01:06:18 80.13
21 Defevere Carl 01:06:20 80.10
22 Flott Timothy 01:06:22 80.07
23 Misplon Bert 01:06:23 80.06
24 De Dobbelaere Jan 01:06:24 80.04
25 Lycke Stijn 01:06:26 80.01
26 Allebosch Gianni 01:06:28 79.99
27 Lagache Stijn 01:06:52 79.65
28 Vandekerkhove Bram 01:06:53 79.63
29 De Somviele Bert 01:07:05 79.46
30 Vanparrys Marc 01:07:17 79.29
31 Meeusen Arno 01:07:33 79.06
32 Sels Lander 01:07:35 79.04
33 NAUDTS Peter 01:07:38 78.99
34 De Craemer Bert 01:07:42 78.94
35 Vangrunderbeek Seb 01:07:47 78.87
36 Dekiere Thijs 01:07:49 78.84
37 Vermont Bert 01:07:58 78.71
38 Bodere Joachim 01:08:06 78.60
39 De Bels Eddy 01:08:11 78.52
40 Vankelecom Jeroen 01:08:17 78.44
41 De Meester Wim 01:08:19 78.41
42 Decramer Robin 01:08:36 78.17
43 Dobbelaere Bert 01:08:43 78.07
44 De Smedt Brecht 01:09:05 77.76
45 Boone Justin 01:09:16 77.60
46 Fabri Yander 01:09:20 77.55
47 Snoeck Simon 01:09:28 77.43
48 Niels Van Vooren 01:09:35 77.33
49 Blondeel Jensen 01:09:35 77.33
50 Buffel Bruno 01:09:36 77.32
51 Verhagen Frederick 01:09:40 77.26
52 Juliens Aaron 01:10:03 76.94
53 Traas Marcel 01:10:12 76.81
54 Vervust Jonas 01:10:21 76.68
55 Verbeke Bert 01:10:25 76.62
56 De Meyer Hannes 01:10:43 76.37
57 De Meyer Thomas 01:10:46 76.33
58 Martinsen Niels 01:10:50 76.27
59 Juliens Edwin 01:10:59 76.14
60 Vanthomme Simon 01:11:04 76.07
61 Serruys Pieterjan 01:11:15 75.91
62 Meirlaen Matthias 01:11:17 75.89
63 Ghequière Peter 01:11:30 75.70
64 Benjamin Tytgat 01:11:31 75.69
65 Coesens Boris 01:11:32 75.67
66 Vermont Filip 01:11:34 75.65
67 De Wilde Joey 01:11:43 75.52
68 Van Hecke Peter 01:11:49 75.43
69 Huys Tom 01:11:53 75.38
70 Van Brabandt Ludwig 01:11:55 75.35
71 De Haene Christoph 01:11:56 75.33
72 De Crée Tom 01:12:06 75.19
73 Bultheel Thibault 01:12:08 75.16
74 Deeren Jan 01:12:09 75.15
75 Uytterschaut Dany 01:12:11 75.12
76 Dewulf Christophe 01:12:14 75.08
77 Van Stichel Balder 01:12:18 75.02
78 Wattez Bart 01:12:19 75.01
79 Lannoye Stijn 01:12:19 75.01
80 Van Craeynest Kenzo 01:12:22 74.96
81 Van Brabandt Siegfried 01:12:30 74.85
82 Apers Luc 01:12:32 74.82
83 Gerlo Joeri 01:12:47 74.61
84 Roman Dieter 01:12:51 74.55
85 Bruneel Robin 01:12:53 74.52
86 De Smedt Volkwin 01:12:57 74.47
87 Stevens Guylian 01:13:03 74.38
88 Vandenbrande Steven 01:13:06 74.34
89 Coopman Cedric 01:13:07 74.33
90 Vanneste Tom 01:13:10 74.28
91 Goeminne Gert AndrÉ 01:13:16 74.20
92 Christiaens Thomas 01:13:23 74.10
93 Mels Geert 01:13:24 74.08
94 Vanwesebeeck Arvid 01:13:28 74.03
95 Watteyne Martin 01:13:30 74.00
96 Karier Pol 01:13:32 73.97
97 Martin Yves 01:13:35 73.93
98 Van Vooren Jan 01:13:38 73.89
99 Cogghea Jeroen 01:13:45 73.79
100 Moulin Sander 01:13:52 73.69
101 Naudts Steven 01:13:56 73.63
102 Reyniers Bart 01:14:01 73.56
103 Hanselaer Willem 01:14:04 73.52
104 Tempelaere Brecht 01:14:07 73.47
105 Dhont Christiaan 01:14:10 73.43
106 Pickavet Mario 01:14:12 73.40
107 Estievenart Benjamin 01:14:15 73.36
108 Neuckermans Bouter 01:14:18 73.32
109 Mouton Stijn 01:14:19 73.30
110 Eggermont Pieter 01:14:20 73.29
111 Vanhevel Siegfried 01:14:21 73.28
112 Blontia Nico 01:14:23 73.25
113 Verhaeven Alex 01:14:23 73.25
114 Duhayon Kris 01:14:25 73.22
115 Van De Sande Tom 01:14:34 73.09
116 Acke Wim 01:14:49 72.88
117 Velle Jozua 01:14:50 72.86
118 Slock Gregory 01:14:51 72.85
119 De Wolf Pieter 01:14:55 72.79
120 Stijn De Smedt 01:15:12 72.55
121 Van De Graaf Thijs 01:15:15 72.51
122 De Ridder Kris 01:15:16 72.50
123 Van Wietendaele Ingemar 01:15:27 72.34
124 Verhaevert Wiet 01:15:31 72.28
125 Naudts Kevin 01:15:44 72.10
126 Vanderiviere Mathieu 01:15:53 71.97
127 Vandenabeele Steven 01:15:54 71.96
128 Bonte Thibault 01:15:56 71.93
129 Verhaeghe Pieter 01:15:57 71.91
130 Willemyns Luc 01:15:59 71.89
131 Bettens Ben 01:16:01 71.86
132 Devloo Stefaan 01:16:01 71.86
133 Van Den Branden Jeroen 01:16:02 71.84
134 Vanwesenbeeck Joris 01:16:04 71.82
135 Van Ransbeeck Josse 01:16:06 71.79
136 De Schepper Jeroen 01:16:10 71.73
137 Strubbe Thomas 01:16:12 71.70
138 Van De Gender Steven 01:16:15 71.66
139 de maeyer jan 01:16:24 71.53
140 Clauw Björn 01:16:31 71.43
141 Coelembier Dieter 01:16:33 71.40
142 Malfait Willem 01:16:40 71.30
143 Van den Berghe Ruben 01:16:46 71.22
144 Braet David 01:16:51 71.15
145 Van Bever Bart 01:16:56 71.08
146 Delcourt Olivier 01:16:57 71.06
147 Stuyck Luc 01:17:08 70.91
148 Hiergens Thomas 01:17:15 70.81
149 Baete Gieljan 01:17:18 70.77
150 Callebaut Kevin 01:17:23 70.69
151 De vos Gert 01:17:27 70.64
152 Dequesne Jari 01:17:33 70.55
153 Michielsen Geert 01:17:35 70.52
154 Van Hyfte Maarten 01:17:42 70.43
155 Rootsaert Arno 01:17:45 70.38
156 Vermeiren Tom 01:17:45 70.38
157 Proost Nick 01:17:45 70.38
158 Raman Nick 01:17:48 70.34
159 Vandeghinste Sam 01:17:48 70.34
160 Decock Wim 01:17:48 70.34
161 Verhoustraete Dennis 01:17:53 70.27
162 Dermul Bart 01:17:58 70.20
163 Fornier Wouter 01:18:09 70.04
164 Strubbe Mathieu 01:18:18 69.91
165 Van Poucke Peter 01:18:23 69.84
166 Verdonck Dries 01:18:26 69.80
167 Ghijsel Hans 01:18:29 69.76
168 Coen Ivan 01:18:30 69.74
169 Jan Meeusen 01:18:33 69.70
170 Lips Johannes 01:18:34 69.69
171 Vandeputte Olivier 01:18:45 69.53
172 De Block Bert 01:18:47 69.50
173 Van Meerbeeck Christophe 01:18:48 69.49
174 Groothaerd Jurgen 01:18:50 69.46
175 Bortier Jurgen 01:18:52 69.43
176 Paz Sagues Pablo 01:18:54 69.40
177 Soenen Björn 01:18:55 69.39
178 Vervust Benjamin 01:19:01 69.30
179 Van Nieuwenhove Laurent 01:19:02 69.29
180 Pinto Timothy 01:19:09 69.19
181 Fasseur Frederick 01:19:10 69.18
182 Morel Philippe 01:19:12 69.15
183 vermeulen steven 01:19:13 69.13
184 Van Daele Filip 01:19:15 69.11
185 Van Hulle Filip 01:19:16 69.09
186 Storme Dries 01:19:23 68.99
187 Declerck Jean-Baptiste 01:19:29 68.91
188 Vanderper Bregt 01:19:29 68.91
189 Vandoorn Winny 01:19:32 68.86
190 Deblock Lucas 01:19:34 68.84
191 Mannaert Kristof 01:19:38 68.78
192 Geyskens Hans 01:19:38 68.78
193 Gysels Gerben 01:19:41 68.74
194 Van Cauwenberghe Brecht 01:19:51 68.60
195 Van Rossom Tomas 01:19:53 68.57
196 Lancksweerdt Lieven 01:19:53 68.57
197 Draelants Jeroen 01:20:03 68.42
198 Roggeman Johan 01:20:11 68.31
199 Struye Dieter 01:20:14 68.27
200 Matton Tom 01:20:19 68.20
201 Marck Thierry 01:20:23 68.14
202 Noppe Nico 01:20:28 68.07
203 D'haene Kurt 01:20:30 68.04
204 Van Haesbroeck Dirk 01:20:30 68.04
205 Jonathan Lambregs 01:20:32 68.01
206 Lamote Matthijs 01:20:33 68.00
207 Goh Kester 01:20:36 67.96
208 De Craene Benjamin 01:20:39 67.91
209 De Cuyper Lieven 01:20:39 67.91
210 Willems Kevin 01:20:39 67.91
211 Van Hulle Bram 01:20:41 67.89
212 Van Houtte Bart 01:20:41 67.89
213 Bonnaerens Senne 01:20:51 67.74
214 Vanhoegaerden Thierry 01:20:59 67.63
215 Van Branden Serge 01:21:00 67.62
216 Lavrysen Laurens 01:21:03 67.57
217 Van Mossevelde Peter 01:21:06 67.53
218 De Schutter Simon 01:21:08 67.50
219 Lagast Kurt 01:21:11 67.46
220 Beerlandt Dennis 01:21:17 67.38
221 Cnops Jacky 01:21:19 67.35
222 Rosseel Steven 01:21:20 67.33
223 Beheyt Yannick 01:21:21 67.32
224 Waeghe Andy 01:21:28 67.22
225 Dhondt Thomas 01:21:33 67.15
226 Van Quekelberghe Bert 01:21:34 67.13
227 Van Damme Nicolas 01:21:35 67.12
228 Vanderhaeghe Dries 01:21:37 67.09
229 Van Den Berghe Tim 01:21:39 67.06
230 Slock Thomas 01:21:40 67.05
231 Decoodt Wim 01:21:40 67.05
232 Meesters Siegfried 01:21:44 66.99
233 Wekhuizen Werner 01:21:47 66.95
234 Van De Keere Kristof 01:21:54 66.85
235 Borghijs Dieter 01:21:55 66.84
236 Van Hamme Kurt 01:22:00 66.77
237 Norro Peter 01:22:06 66.68
238 De Wilde Ken 01:22:09 66.64
239 Bonte Thomas 01:22:09 66.64
240 Driesen Joep 01:22:10 66.62
241 Libeert Georges 01:22:12 66.60
242 Valcke Gaëtan 01:22:14 66.57
243 Masscho Francis 01:22:24 66.42
244 Samijn Arne 01:22:29 66.35
245 Dildick Andre 01:22:31 66.33
246 Gyselinck Johan 01:22:41 66.18
247 Neirinckx Jeroen 01:22:43 66.16
248 Pannecoucke Ruben 01:22:46 66.11
249 Cozyns Steven 01:22:51 66.04
250 Van Kerrebrouck Jurgen 01:22:58 65.94
251 Galens Steven 01:22:58 65.94
252 TEijsen Bart 01:23:05 65.84
253 Bonte Francis 01:23:09 65.79
254 Deprez Edouard 01:23:15 65.70
255 Fornier Stijn 01:23:16 65.69
256 De Volder Ronny 01:23:20 65.63
257 Van Durme Brecht 01:23:23 65.59
258 Norro Dries 01:23:25 65.56
259 Daem Valentijn 01:23:26 65.55
260 De. Baets Kurt 01:23:26 65.55
261 Reynaert Youri 01:23:31 65.47
262 Speybrouck Wouter 01:23:35 65.42
263 Ghekiere Karel 01:23:39 65.36
264 Thyssen Jasper 01:23:42 65.32
265 Van Den Bogaert Thomas 01:23:46 65.26
266 Dierckens Jonathan 01:23:58 65.09
267 Vandeghinste Jonas 01:23:58 65.09
268 Lammens Thomas 01:24:08 64.95
269 Mottet Benjamin 01:24:12 64.89
270 Stassen Jan 01:24:16 64.84
271 Dispersyn Jeroen 01:24:18 64.81
272 Christophe Martens 01:24:20 64.78
273 Senechal Robin 01:24:23 64.74
274 Van De Walle Dries 01:24:26 64.69
275 Vanfleteren Sam 01:24:30 64.64
276 Michiels Tom 01:24:40 64.50
277 Matthys Loïc 01:24:42 64.47
278 Vanhoucke Steve 01:24:47 64.40
279 Van Hooreweghe Servaas 01:24:48 64.38
280 De Jaeger Jasper 01:24:52 64.33
281 Weidener Tim 01:24:53 64.31
282 Van Moldergem Jurgen 01:24:53 64.31
283 Strybol David 01:24:54 64.30
284 Nelis Kristof 01:24:57 64.25
285 Van Roy Wilfried 01:24:58 64.24
286 De Brouwer Mathias 01:25:08 64.10
287 Pouillie Brecht 01:25:11 64.06
288 Buyck Ruben 01:25:12 64.04
289 deweerdt karel 01:25:14 64.01
290 Mottet Léopold 01:25:24 63.87
291 reys mathias 01:25:25 63.86
292 Van Breusegem Pascal 01:25:29 63.80
293 Deleu Peter 01:25:30 63.79
294 Demeulemeester Nico 01:25:33 63.74
295 De Bisschop Jan 01:25:34 63.73
296 Lahaye Laurent 01:25:36 63.70
297 Dupont Dominique 01:25:37 63.69
298 Dejonckheere Kristof 01:25:43 63.60
299 Vreys Martijn 01:25:44 63.59
300 Verheye Aaron 01:25:49 63.52
301 De Fré Christoph 01:25:58 63.39
302 Blondeel bart 01:26:01 63.35
303 De Gendt Peter 01:26:07 63.26
304 Cludts Alain 01:26:09 63.23
305 Claus Dirk 01:26:09 63.23
306 Wattez Tom 01:26:11 63.20
307 De Mol Aiko 01:26:13 63.18
308 Remmerie Filip 01:26:24 63.02
309 De Smet Gilles 01:26:31 62.92
310 Dils Sam 01:26:32 62.91
311 Noel Benoit 01:26:37 62.84
312 Bertier Gerrit 01:26:41 62.78
313 Leerman Gaetan 01:26:43 62.75
314 Coudron Bart 01:26:44 62.74
315 Joos Pauwel 01:26:53 62.61
316 Glorieux Gert 01:26:54 62.59
317 Myncke Luc 01:26:58 62.54
318 Neyrynck Tibo 01:27:08 62.40
319 Vercruysse Marc 01:27:12 62.34
320 Laporte Maxim 01:27:22 62.20
321 Gorissen Glenn 01:27:26 62.14
322 Braekeveldt Bart 01:27:28 62.11
323 Vanderbeken Bjorn 01:27:28 62.11
324 Goossens Martin 01:27:35 62.01
325 Mahieu Antoine 01:27:39 61.96
326 Van Eenooghe Willem 01:27:42 61.91
327 Laenen Pieter 01:27:45 61.87
328 Calu Hans 01:27:46 61.86
329 Vande Kerckhove Bjorn 01:27:48 61.83
330 Callens Steven 01:27:57 61.70
331 Slock Christof 01:28:01 61.64
332 Schrurs Bart 01:28:09 61.53
333 Aps Jan 01:28:14 61.46
334 Deman Fabian 01:28:19 61.39
335 Carbonez Jeroen 01:28:22 61.35
336 L'ecluse Wim 01:28:24 61.32
337 verbruggen yannick 01:28:25 61.30
338 Tausic Boris 01:28:26 61.29
339 Deman Frederik 01:28:27 61.28
340 Van Landschoot Peter 01:28:31 61.22
341 Windels Robbe 01:28:38 61.12
342 Braeckman Bert 01:28:39 61.11
343 Van Bellingen Stefan 01:28:43 61.05
344 Beirnaert Maarten 01:28:52 60.92
345 D'hont Nico 01:28:53 60.91
346 Carlo Becu 01:28:56 60.86
347 Olivier Steven 01:28:57 60.85
348 Loyen Pascal 01:29:00 60.81
349 Roelandt Ruan 01:29:02 60.78
350 VERSCHUERE Dominique 01:29:16 60.58
351 Cogghe Frank 01:29:22 60.50
352 Noppe Niels 01:29:22 60.50
353 D'alleine Frederick 01:29:25 60.45
354 Lievens Ward 01:29:37 60.28
355 Vandermeiren Gregory 01:29:41 60.23
356 Pattyn Brecht 01:29:43 60.20
357 Lips Bart 01:29:50 60.10
358 Lips Koen 01:29:58 59.98
359 Preud'homme Frank 01:30:00 59.96
360 Tempels Sven 01:30:58 59.13
361 Lievens Nick 01:31:00 59.11
362 Delvoye Dave 01:31:00 59.11
363 De Clercq Maarten 01:31:12 58.94
364 Firmin Dhooge 01:31:37 58.58
365 Notredame Filip 01:31:40 58.54
366 Matthias Dierselhuis 01:31:59 58.27
367 Valentin Lander 01:32:09 58.13
368 De Rijck Ronny 01:33:38 56.86
369 Buyle Timothy 01:33:39 56.85
370 Verdonck Gert 01:33:57 56.59
371 Schoenmakers Henri 01:34:01 56.54
372 Kint Edwin 01:34:08 56.44
373 Wallays Carlos 01:34:14 56.35
374 Brecht Brackeva 01:34:17 56.31
375 Chihab Faris 01:34:21 56.25
376 De Block Steven 01:35:07 55.60
377 De Coninck Joris 01:35:24 55.36
378 Deroo Lode 01:35:27 55.32
379 Jaques Christophe 01:36:07 54.75
380 Van Innis Filip 01:36:11 54.69
381 Ampe Alexander 01:36:12 54.68
382 Van Der Poel Joannes 01:36:25 54.50
383 De Heel Michel 01:36:37 54.32
384 Verstringe Wim 01:37:21 53.70
385 Cornelissen Evert 01:37:27 53.62
386 Van Autreve Boudewijn 01:37:53 53.25
387 Vanpraet Jan 01:38:12 52.98
388 Messiaen Vincent 01:38:22 52.84
389 De Poorter Peter 01:38:22 52.84
390 Colaert Niklaas 01:38:25 52.79
391 Crispeyn Jimmy 01:38:32 52.69
392 De Volder Koen 01:38:37 52.62
393 Van Crombrugghe Steven 01:38:48 52.47
394 Landuyt Kurt 01:39:13 52.11
395 De Muynck Dirk 01:39:20 52.01
396 Coupez Geert 01:40:23 51.12
397 Nuttens Eric 01:40:34 50.96
398 Bouckaert Kristof 01:41:01 50.58
399 Jan Gabriels 01:41:16 50.37
400 Lamote Adriaan 01:41:47 49.93
401 Lamote Carl 01:41:47 49.93
402 De Swaef Bert 01:42:05 49.67
403 Haegebaert Levi 01:42:19 49.47
404 Bonte Jan 01:42:37 49.22
405 Boonen Guido 01:44:42 47.45
406 Musch Jean Philippe 01:46:40 45.77
407 Lagrange Jan 01:46:43 45.73
408 De Boever Rico 01:49:27 43.40
409 Boever Philippe 01:49:27 43.40
410 Nicolas Piqueur 01:50:46 42.28
411 Roobroeck Dries 01:58:30 35.20

Reacties

  • 5 jaar geleden

    Beste,
    Gezien deze info niet klopt mag je om misverstanden te vermijden deze van de kalender verwijderen.
    Juiste info is reeds ingegeven en staat online.
    Mvg,
    Koen

  • 5 jaar geleden

    Dag Koen

    Bedankt voor de info, dit is aangepast.

  • 5 jaar geleden

    Deze wedstrijd zal doorgaan op 15/03/2015 onder organisatie RBR-Geel.